STARLINK-31665, 59655

Orbit data source: Space-Track

STARLINK-31665, 59655 is a payload satellite owned by SpaceX/Seattle (US) in LEO that was launched on Mon, 06 May 2024 UTC via an FALCON 9 launch vehicle from the Air Force Eastern Test Range (AFETR). Payload-class satellites include a variety of spacecraft equipped with specific instruments for various scientific and technological missions. These include communications satellites like Starlink; space stations such as the ISS; scientific satellites like the Hubble; Earth observation satellites from companies like Planet Labs, Umbra, and HawkEye 360; GPS; miniature CubeSats for education and research; and military/defense satellites.

Loading next visibility...
Identifier
59655, 2024-084B
Orbit
LEO
Country
Flag of USUS
Related business
Manufacturer
SpaceX/Seattle
Mission
Operational Commercial Communications
Bus & Motor
STARLINK V2M, Unknown motor
Mass
730 kg wet, ~700 kg dry
Launch date (UTC)
2024-05-06 (2 years ago)
Launch vehicle
FALCON 9
Launch site
Air Force Eastern Test Range (AFETR)
Object type
Payload
Rocket body
Debris
Shape & HBR
Box + 2 Pan, 17.7 m
Radar Cross Section
33.884 m², Large (>1 m²)

Expand to show TLE details & history
Last TLE update: 1 day ago

TLE from 1 day ago
0 STARLINK-31665
1 59655U 24084B   25347.77045145  .00003725  00000-0  14480-3 0  9999
2 59655  43.0025 163.5038 0002037 278.7289  81.3332 15.27587363 91273
Epoch: 2025-12-13T18:29Z
TLE epoch observation values (Epoch: 2025-12-13T18:29:27.005Z)
Latitude
-0°
Longitude
163.44832°
Altitude
482.592 km
Speed
7.626 km/s
True Right ascension
10h 54m 00s
True Declination
0° 00' 00"
Sunlit
Object was in daylight at epoch
Visualization orbit readout
Latitude
Unknown
Longitude
Unknown
Altitude
Unknown
Speed
Unknown
Apparent Right ascension
Unknown
Apparent Declination
Unknown
Sunlit
N/A
Visualization observer readout
Local Sidereal Time
19:39:11
Azimuth
Unknown
Elevation
Unknown
Doppler factor
Unknown
Orbital elements
Apogee altitude
486.37 km
Perigee altitude
483.574 km
Semi-major axis
6,863.109 km
Eccentricity
0.0002
Inclination
43.0025°
RAAN
163.5038°
Arg. of periapsis
278.7289°
True anomaly
81.35628°
Mean anomaly
81.3332°
Eccentric anomaly
81.34474°
Mean motion
3.81735 °/min
Orbital period
94.31 mins
BSTAR
0.0001448
Loading maneuver chart data...
Computing Atmospheric mass density...
Loading historical data...
Loading historical data...
Loading historical data...
Loading historical data...
Loading historical data...
Loading historical data...
Loading historical data...

Documentation

Showing up to 5 results
|